EUTELSAT 16A

Last updated on Thu Nov 21 2024 00:02:41 GMT+0000 (Coordinated Universal Time)

1 37836U 11057A 24325.33452046 .00000105 00000+0 00000+0 0 9998 2 37836 0.0695 3.9612 0005825 243.9832 308.3282 1.00271646 1577
UTC large
Height (km)
Speed (km/s)
/
Latitude / Longitude
Inclination (degrees)
Orbital Period (minutes)
Azimuth
Elevation
Range (km)
Doppler Factor

Next 0 passes for location: London (51.5072 / 0.1276)

Sorry there are no passes over London.